[[{"header":{"parameterUnit":"m.s-1","parameterCategory":1,"la1":30.2992,"la2":30.254,"lo1":-89.0895,"lo2":-89.0443,"dy":0.0025,"dx":0.0025,"nx":19,"ny":19,"refTime":"2026-03-30T03:00:00:Z","depth":0,"parameterNumber":2,"parameterNumberName":"U-component_of_WINDS"},"data":[0,0,0,-3.9809,-3.9814,-4.0049,-4.005,-4.0354,-4.0356,0,0,0,0,0,0,0,0,0,0,0,-3.9739,-3.9741,-3.9808,-3.9814,-4.0049,-4.005,-4.0353,-4.0356,0,0,0,0,0,0,0,0,0,0,0,-3.9738,-3.974,-3.9743,-3.9815,-4.0049,-4.005,-4.0352,-4.0174,0,0,0,0,0,0,0,0,0,0,-3.9946,-3.988,-3.974,-3.9743,-3.9817,-4.0049,-4.005,-4.0166,-4.0186,-4.0247,0,-4.0301,0,-4.0333,-4.0377,-4.0378,0,0,0,-3.9815,-3.9864,-3.9927,-3.9743,-3.9819,-4.0048,-3.9943,-4.0177,-4.0199,-4.0274,-4.0305,-4.0316,-4.0338,-4.0378,-4.038,-4.0732,-4.0733,0,0,-3.9802,-3.9781,-3.9912,-3.9942,-3.9904,-3.9936,-3.9951,-4.019,-4.0224,-4.0306,-4.0323,-4.0343,-4.0381,-4.0383,-4.073,-4.0732,0,0,0,-3.9764,-3.9772,-3.983,-3.9929,-3.9971,-3.9943,-3.996,-4.0213,-4.0234,-4.0327,-4.0347,-4.0382,-4.0386,-4.0729,-4.0731,-4.079,0,0,0,-3.9756,-3.975,-3.9824,-3.9814,-3.9967,-4.0095,-3.9977,-4.0217,-4.0245,-4.0345,-4.0382,-4.0389,-4.0727,-4.073,-4.0785,-4.0822,0,0,0,-3.9724,-3.9746,-3.978,-3.9812,-3.9912,-4.0091,-4.0126,-4.0224,-4.0257,-4.0378,-4.039,-4.0726,-4.0729,-4.078,-4.0814,-4.0909,0,0,0,-3.9683,-3.9829,-3.978,-3.9952,-3.991,-4.0126,-4.0124,-4.0286,-4.0397,-4.0384,-4.0727,-4.0731,-4.0779,-4.0809,-4.0904,-4.0985,-4.1017,0,0,-3.9856,-3.9849,-3.9952,-3.9915,-4.0134,-4.0092,-4.032,-4.0441,-4.0473,-4.0644,-4.0653,-4.0787,-4.0813,-4.0908,-4.1202,-4.1227,0,0,0,-4.0,-4.0073,-4.0136,-4.024,-4.0335,-4.0421,-4.051,-4.0555,-4.0702,-4.0556,-4.0847,-4.0864,-4.092,-4.096,-4.0982,-4.1032,-4.0748,-4.0748,-4.0748,-4.0215,-4.0246,-4.0419,-4.048,-4.0581,-4.0671,-4.0757,-4.0834,-4.0836,-4.0905,-4.0956,-4.113,-4.1176,-4.1193,-4.1245,-4.1001,-4.1002,-4.1002,-4.1002,-4.0471,-4.0581,-4.0582,-4.0749,-4.0783,-4.0925,-4.1019,-4.1017,-4.1155,-4.1094,-4.1145,-4.1076,-4.1219,-4.1266,-4.1007,-4.1006,-4.1005,-4.1005,-4.1005,-4.0616,-4.0674,-4.0726,-4.0881,-4.0997,-4.1054,-4.1187,-4.1214,-4.1239,-4.129,-4.1348,-4.1347,-4.135,-4.1316,-4.1316,-4.1317,-4.1317,-4.1318,-4.1318,-4.0745,-4.0802,-4.091,-4.1025,-4.1096,-4.1193,-4.1288,-4.1359,-4.1445,-4.1454,-4.1455,-4.1451,-4.1227,-4.117,-4.1328,-4.1326,-4.1325,-4.1324,-4.1323,-4.0994,-4.0942,-4.1108,-4.118,-4.1319,-4.1433,-4.1465,-4.1609,-4.1672,-4.1737,-4.1724,-4.1553,-4.1549,-4.1532,-4.1485,-4.1715,-4.1715,-4.1715,-4.1715,-4.1116,-4.1116,-4.1293,-4.1406,-4.1519,-4.1565,-4.1756,-4.1831,-4.1902,-4.1943,-4.1914,-4.1854,-4.1836,-4.1843,-4.1819,-4.1776,-4.2075,-4.2075,-4.2075,-4.1271,-4.1284,-4.1439,-4.1506,-4.1617,-4.1713,-4.1893,-4.2024,-4.2093,-4.2091,-4.1977,-4.1962,-4.1866,-4.1833,-4.1826,-4.1789,-4.171,0,0]},{"header":{"parameterUnit":"m.s-1","parameterCategory":1,"la1":30.2992,"la2":30.254,"lo1":-89.0895,"lo2":-89.0443,"dy":0.0025,"dx":0.0025,"nx":19,"ny":19,"refTime":"2026-03-30T03:00:00:Z","depth":0,"parameterNumber":3,"parameterNumberName":"V-component_of_WINDS"},"data":[0,0,0,3.152,3.1522,3.1586,3.1587,3.1676,3.1677,0,0,0,0,0,0,0,0,0,0,0,3.1504,3.1504,3.152,3.1522,3.1586,3.1587,3.1676,3.1677,0,0,0,0,0,0,0,0,0,0,0,3.1503,3.1504,3.1505,3.1522,3.1586,3.1587,3.1676,3.1625,0,0,0,0,0,0,0,0,0,0,3.1561,3.1548,3.1504,3.1505,3.1522,3.1586,3.1587,3.1622,3.1628,3.165,0,3.1668,0,3.1674,3.1683,3.1684,0,0,0,3.152,3.1543,3.1558,3.1505,3.1523,3.1586,3.1557,3.1625,3.1632,3.1657,3.1669,3.1673,3.1676,3.1684,3.1684,3.1815,3.1816,0,0,3.1516,3.1517,3.1554,3.1563,3.1552,3.1555,3.1559,3.1629,3.1643,3.167,3.1675,3.1677,3.1685,3.1685,3.1814,3.1815,0,0,0,3.1507,3.1514,3.1528,3.1559,3.157,3.1557,3.1561,3.164,3.1644,3.1675,3.1678,3.1685,3.1686,3.1814,3.1815,3.1851,0,0,0,3.1505,3.1509,3.1526,3.1527,3.1569,3.1605,3.157,3.1639,3.1647,3.1678,3.1685,3.1687,3.1813,3.1814,3.1848,3.1868,0,0,0,3.1499,3.1508,3.1519,3.1527,3.1555,3.1604,3.1613,3.1641,3.1649,3.1684,3.1688,3.1812,3.1814,3.1846,3.1864,3.1904,0,0,0,3.1492,3.1548,3.1519,3.1584,3.1554,3.1626,3.1612,3.1665,3.1699,3.1686,3.1813,3.1815,3.1845,3.1861,3.1901,3.1938,3.1953,0,0,3.1563,3.1557,3.1595,3.1571,3.1648,3.1616,3.1699,3.1729,3.1732,3.1788,3.1791,3.1849,3.1864,3.1904,3.2037,3.2049,0,0,0,3.1618,3.1645,3.1666,3.1699,3.1724,3.1749,3.1767,3.1779,3.1826,3.176,3.1874,3.1883,3.1906,3.1924,3.1934,3.1955,3.1823,3.1822,3.1822,3.1718,3.1721,3.1785,3.1796,3.1829,3.1849,3.1876,3.1896,3.1887,3.1914,3.193,3.2011,3.2032,3.204,3.2062,3.195,3.195,3.195,3.195,3.1824,3.1864,3.1854,3.1913,3.1916,3.1966,3.1989,3.1982,3.203,3.1998,3.2019,3.1984,3.2053,3.2073,3.1953,3.1952,3.1952,3.1952,3.1951,3.189,3.191,3.1925,3.1977,3.2016,3.2026,3.2074,3.2075,3.2075,3.2096,3.2115,3.2115,3.2115,3.2105,3.2106,3.2106,3.2106,3.2106,3.2106,3.1954,3.1969,3.2009,3.2045,3.2068,3.21,3.2124,3.2148,3.2174,3.2171,3.2171,3.2162,3.2059,3.2034,3.2111,3.211,3.2109,3.2109,3.2109,3.206,3.2037,3.2099,3.2123,3.2167,3.2208,3.221,3.2259,3.2279,3.2304,3.2291,3.2214,3.2207,3.2199,3.2178,3.2288,3.2288,3.2288,3.2288,3.2117,3.2115,3.218,3.2219,3.2257,3.2266,3.234,3.2361,3.2379,3.2393,3.2377,3.235,3.2341,3.2339,3.2328,3.2309,3.245,3.245,3.245,3.2184,3.2186,3.2246,3.2264,3.23,3.2331,3.2401,3.2449,3.2464,3.2457,3.2404,3.2397,3.2353,3.2338,3.2327,3.2309,3.2274,0,0]}]]